Location: Antioch
(38.0049°N, 121.8058°W)
Time: 23:45:33
(UTC+00:00)

Cosmos 2208 Rocket - Pass Details

Date: 21 May 2026
Orbit: 751 x 800 km, 74.0° (Epoch: 7 June)

Event Time Altitude Azimuth Distance (km) Brightness Sun altitude
Exits shadow 08:36:30 47° 44° (NE) 1,017 4.8 -31.3°
Drops below altitude 10° 08:40:18 10° 24° (NNE) 2,311 7.3 -31.1°
Sets 08:42:41 0° 22° (NNE) 3,234 8.3 -31.1°
